User: anonymous   Login
Location: Unspecified
(0.0000°N, 0.0000°E)
Time: 16:49:14
(UTC+02:00)
Language:

NOSS 3-3 (A) - Orbit

View from above orbital plane
View from above orbital plane
View from above satellite
View from above satellite

Ground track
Ground track

The orbit data is extracted from the following two-line orbital elements,

1 28537U 05004A   16144.91951077 0.00000000  00000-0  00000-0 0    02
2 28537  63.4284 100.3673 0233000 358.2280   1.7719 13.40709185    03
Epoch (UTC): 23 May 2016 22:04:05
Eccentricity: 0.0233000
inclination: 63.4284°
perigee height: 932 km
apogee height: 1281 km
right ascension of ascending node: 100.3673°
argument of perigee: 358.2280°
revolutions per day: 13.40709185
mean anomaly at epoch: 1.7719°
orbit number at epoch: 0

The dashed part of the orbit path shows where the satellite is in the earth's shadow,  

DLR